Cloud_Cover
100 98 91 100 100 100 36 32 5 5 99 100 100 100 100 100 100 100 100 100 100 100 63 100 74 21 1 15 5 5 5 5 2 0 0 0 0 2 0 0 0 0 42 100
100 100 87 97 100 35 5 94 48 48 99 94 62 27 10 99 100 100 83 51 100 99 95 65 46 15 58 97 14 100 13 2 5 5 5 6 1 0 0 0 0 0 0 0
100 100 100 79 46 100 28 25 55 27 22 5 2 5 5 5 91 10 5 5 15 100 14 94 95 35 100 72 82 5 5 5 5 6 18 14 3 0 0 0 0 0 0 0
100 100 100 100 100 10 5 0 5 6 10 48 5 7 5 5 5 5 5 13 12 8 14 92 100 99 20 5 5 5 5 39 17 21 19 2 3 7 2 0 0 0 0 0
73 100 18 100 84 71 5 5 4 35 100 100 66 61 14 6 5 5 52 6 9 100 50 85 5 5 5 5 5 0 0 5 5 1 0 0 0 0 0 10 0 0 0 0
95 100 100 100 100 82 5 3 5 5 42 89 42 91 76 98 44 40 37 26 9 52 5 5 5 5 5 3 2 1 5 3 0 0 0 0 0 26 3 60 10 19 44 21
100 100 100 100 100 87 5 2 5 16 55 55 63 30 57 16 100 14 19 11 18 5 5 5 5 5 0 0 0 0 0 0 0 0 0 0 0 4 5 5 5 100 100 100
91 100 100 100 100 30 6 2 5 6 46 21 5 30 37 18 34 21 36 39 5 5 5 5 1 0 0 0 0 0 0 0 0 0 0 0 1 5 11 5 5 90 97 100
94 100 100 100 56 5 5 0 5 5 5 13 5 9 21 85 100 74 5 5 5 5 4 0 0 0 0 0 0 0 0 0 0 0 0 1 5 5 32 12 81 100 100 100
91 64 86 99 81 32 3 5 5 5 5 5 67 100 40 88 99 81 52 7 5 2 0 0 0 0 0 0 0 0 0 0 0 0 0 4 45 6 100 100 100 100 100 97
31 55 80 100 100 84 3 5 5 5 5 5 12 42 96 100 87 38 10 5 4 0 0 0 0 0 0 0 0 0 0 0 0 0 3 19 5 35 72 100 100 100 66 6
20 9 65 100 81 16 5 7 19 5 5 53 5 27 67 100 100 83 5 5 3 0 0 0 0 0 0 0 0 0 0 2 0 3 4 14 54 100 100 100 100 100 62 46
52 100 100 86 29 5 5 14 8 14 100 47 5 25 85 88 13 5 5 21 0 0 0 0 0 0 0 0 0 0 0 0 0 5 5 25 76 96 100 100 100 100 100 100
100 100 100 64 6 11 51 99 100 100 99 100 58 43 6 5 5 4 14 0 0 0 0 2 0 0 0 0 0 0 0 0 1 5 5 17 100 100 100 100 100 100 100 100
79 92 77 100 8 78 9 97 100 98 97 100 99 87 5 5 5 1 0 0 0 0 0 0 8 54 0 0 0 0 0 2 3 2 5 7 98 100 91 100 97 99 100 100
88 6 78 94 100 27 5 100 100 100 100 51 20 6 6 5 9 5 2 0 0 0 0 2 50 32 0 0 0 0 0 2 0 5 4 5 25 74 46 8 5 6 94 100
46 7 68 96 100 100 8 100 100 100 73 100 100 100 12 69 25 3 0 0 0 0 0 26 2 0 0 0 0 0 0 0 2 5 4 5 5 9 11 5 5 28 100 100
100 100 65 88 100 100 14 100 100 92 98 72 96 100 100 28 5 2 1 0 0 0 3 14 0 0 0 0 0 0 0 0 0 1 4 5 5 5 5 5 44 7 67 97
100 100 100 83 100 100 12 100 100 87 100 98 11 100 100 5 5 5 5 0 0 2 59 86 53 0 0 0 0 0 0 0 2 2 5 5 5 5 5 5 39 100 52 13
100 94 80 18 100 100 33 100 100 15 99 100 34 100 99 5 5 5 0 0 0 0 7 39 13 0 4 0 0 0 0 0 0 5 5 5 5 5 5 5 5 5 5 14
100 82 87 30 100 50 100 100 86 86 100 99 57 100 21 5 5 5 0 0 17 100 72 34 5 0 5 6 1 0 0 0 1 5 5 5 5 5 5 5 5 5 5 5
100 61 100 100 100 74 68 100 76 100 100 86 5 21 5 2 5 4 0 0 52 23 75 84 5 3 96 98 17 6 0 0 2 5 5 0 5 5 5 4 5 8 5 5
100 29 85 100 100 86 98 100 100 100 100 60 5 5 4 2 5 1 0 8 94 28 70 1 5 6 62 100 37 0 0 0 4 5 5 5 5 5 5 12 12 75 99 73
100 60 78 39 77 84 100 100 100 100 14 85 6 9 5 5 5 2 0 42 23 1 0 0 5 5 34 98 50 0 1 5 5 5 5 5 5 5 35 100 98 100 88 84
100 97 65 62 90 70 100 100 100 91 76 64 22 26 5 5 4 4 1 5 43 0 0 0 5 5 12 94 80 49 0 1 5 5 5 5 5 23 89 91 98 100 53 96
100 93 53 100 100 100 100 100 100 100 42 5 5 15 5 5 2 0 15 88 33 62 2 18 16 100 13 99 100 68 3 2 78 5 5 5 5 17 100 100 100 99 84 100